User: anonymous   Login
Location: D�derode
(51.8092°N, 10.1065°E)
Time: 20:04:43
(UTC+00:00)
Language:

Cosmos 1943 - Orbit

View from above orbital plane
View from above orbital plane
View from above satellite
View from above satellite

Ground track
Ground track

The orbit data is extracted from the following two-line orbital elements,

1 19119U 88039A   21060.30828132 -.00000169  00000-0 -62610-4 0  9992
2 19119  71.0039 140.0093 0010877 172.2100 253.4935 14.15170064693251
Epoch (UTC): 01 March 2021 07:23:55
Eccentricity: 0.0010877
inclination: 71.0039°
perigee height: 834 km
apogee height: 849 km
right ascension of ascending node: 140.0093°
argument of perigee: 172.2100°
revolutions per day: 14.15170064
mean anomaly at epoch: 253.4935°
orbit number at epoch: 69325

The dashed part of the orbit path shows where the satellite is in the earth's shadow,  

DLR